User: anonymous   Login
Location: Observatoire de Paris
(48.8363°N, 2.3365°E)
Time: 20:12:14
(UTC+01:00)
Language:

Tiros 1 - Orbit

View from above orbital plane
View from above orbital plane
View from above satellite
View from above satellite

Ground track
Ground track

The orbit data is extracted from the following two-line orbital elements,

1    29U 60002B   21208.39029317 -.00000102  00000-0  15774-4 0  9998
2    29  48.3780 197.4780 0023800 166.5831 193.5718 14.74441600278419
Epoch (UTC): 27 July 2021 09:22:01
Eccentricity: 0.0023800
inclination: 48.3780°
perigee height: 630 km
apogee height: 663 km
right ascension of ascending node: 197.4780°
argument of perigee: 166.5831°
revolutions per day: 14.74441600
mean anomaly at epoch: 193.5718°
orbit number at epoch: 27841

The dashed part of the orbit path shows where the satellite is in the earth's shadow,  

DLR